TimeCDT,TemperatureF,Dew PointF,Humidity,Sea Level PressureIn,VisibilityMPH,Wind Direction,Wind SpeedMPH,Gust SpeedMPH,PrecipitationIn,Events,Conditions,WindDirDegrees,DateUTC
12:53 AM,71.1,57.0,61,29.60,10.0,SSW,16.1,-,N/A,,Clear,200,2013-04-30 05:53:00
1:53 AM,70.0,55.0,59,29.61,10.0,South,13.8,-,N/A,,Clear,190,2013-04-30 06:53:00
2:53 AM,70.0,53.1,55,29.61,10.0,SSW,16.1,-,N/A,,Clear,200,2013-04-30 07:53:00
3:53 AM,69.1,53.1,57,29.63,10.0,South,15.0,-,N/A,,Clear,190,2013-04-30 08:53:00
4:53 AM,68.0,52.0,56,29.62,10.0,SSW,18.4,25.3,N/A,,Clear,200,2013-04-30 09:53:00
5:53 AM,66.9,51.1,57,29.64,10.0,SSW,17.3,26.5,N/A,,Clear,200,2013-04-30 10:53:00
6:53 AM,64.9,50.0,58,29.67,10.0,South,13.8,-,N/A,,Clear,190,2013-04-30 11:53:00
7:53 AM,68.0,51.1,55,29.69,10.0,SSW,19.6,25.3,N/A,,Clear,200,2013-04-30 12:53:00
8:53 AM,72.0,51.1,48,29.70,10.0,SSW,23.0,31.1,N/A,,Clear,210,2013-04-30 13:53:00
9:53 AM,75.0,51.1,43,29.70,10.0,SSW,25.3,38.0,N/A,,Clear,210,2013-04-30 14:53:00
10:53 AM,77.0,50.0,39,29.70,10.0,SSW,23.0,34.5,N/A,,Clear,210,2013-04-30 15:53:00
11:53 AM,80.1,48.0,32,29.70,10.0,SW,23.0,31.1,N/A,,Clear,220,2013-04-30 16:53:00
12:53 PM,82.0,51.1,34,29.68,10.0,SSW,19.6,33.4,N/A,,Clear,200,2013-04-30 17:53:00
1:53 PM,82.9,51.1,33,29.68,10.0,SSW,15.0,29.9,N/A,,Clear,200,2013-04-30 18:53:00
2:53 PM,82.9,52.0,34,29.68,10.0,South,19.6,28.8,N/A,,Clear,190,2013-04-30 19:53:00
3:53 PM,82.9,52.0,34,29.69,10.0,South,18.4,27.6,N/A,,Clear,190,2013-04-30 20:53:00
4:53 PM,82.0,51.1,34,29.70,10.0,SSW,15.0,26.5,N/A,,Clear,200,2013-04-30 21:53:00
5:53 PM,80.1,51.1,36,29.72,10.0,South,18.4,27.6,N/A,,Clear,180,2013-04-30 22:53:00
6:53 PM,78.1,50.0,37,29.73,10.0,South,13.8,21.9,N/A,,Clear,180,2013-04-30 23:53:00
7:53 PM,75.0,52.0,44,29.75,10.0,South,9.2,-,N/A,,Clear,170,2013-05-01 00:53:00
8:53 PM,71.1,50.0,47,29.76,10.0,South,9.2,-,N/A,,Clear,170,2013-05-01 01:53:00
9:53 PM,70.0,50.0,49,29.79,10.0,South,10.4,-,N/A,,Clear,180,2013-05-01 02:53:00
10:53 PM,69.1,48.9,49,29.81,10.0,South,11.5,-,N/A,,Clear,180,2013-05-01 03:53:00